TimeCDT,TemperatureF,Dew PointF,Humidity,Sea Level PressureIn,VisibilityMPH,Wind Direction,Wind SpeedMPH,Gust SpeedMPH,PrecipitationIn,Events,Conditions,WindDirDegrees,DateUTC
12:53 AM,64.0,54.0,70,30.06,10.0,SSE,8.1,-,N/A,,Clear,150,2013-07-03 05:53:00
1:53 AM,61.0,53.1,75,30.04,10.0,South,8.1,-,N/A,,Clear,170,2013-07-03 06:53:00
2:53 AM,62.1,54.0,75,30.04,10.0,South,8.1,-,N/A,,Partly Cloudy,170,2013-07-03 07:53:00
3:53 AM,60.1,53.1,78,30.02,10.0,South,8.1,-,N/A,,Scattered Clouds,170,2013-07-03 08:53:00
4:53 AM,59.0,53.1,81,30.02,10.0,South,6.9,-,N/A,,Mostly Cloudy,170,2013-07-03 09:53:00
5:53 AM,60.1,53.1,78,30.01,10.0,SSE,5.8,-,N/A,,Clear,150,2013-07-03 10:53:00
6:53 AM,62.1,53.1,72,30.01,10.0,SSE,6.9,-,N/A,,Clear,160,2013-07-03 11:53:00
7:53 AM,66.9,55.0,66,30.00,10.0,South,5.8,-,N/A,,Partly Cloudy,180,2013-07-03 12:53:00
8:53 AM,71.1,54.0,55,30.01,10.0,South,6.9,-,N/A,,Clear,170,2013-07-03 13:53:00
9:53 AM,75.9,57.0,52,29.99,10.0,South,6.9,-,N/A,,Clear,170,2013-07-03 14:53:00
10:53 AM,79.0,57.9,48,29.97,10.0,SSE,8.1,-,N/A,,Clear,160,2013-07-03 15:53:00
11:53 AM,81.0,55.0,41,29.96,10.0,South,12.7,-,N/A,,Clear,190,2013-07-03 16:53:00
12:53 PM,82.9,55.9,39,29.94,10.0,SSE,11.5,21.9,N/A,,Clear,160,2013-07-03 17:53:00
1:53 PM,84.0,54.0,35,29.93,10.0,South,10.4,18.4,N/A,,Clear,170,2013-07-03 18:53:00
2:53 PM,84.0,52.0,33,29.91,10.0,South,13.8,-,N/A,,Clear,170,2013-07-03 19:53:00
3:53 PM,84.9,52.0,32,29.90,10.0,SSE,8.1,18.4,N/A,,Clear,150,2013-07-03 20:53:00
4:53 PM,84.9,55.0,36,29.88,10.0,SSE,9.2,18.4,N/A,,Clear,160,2013-07-03 21:53:00
5:53 PM,84.0,53.1,34,29.86,10.0,SSE,11.5,-,N/A,,Clear,150,2013-07-03 22:53:00
6:53 PM,82.9,53.1,36,29.85,10.0,SSE,11.5,-,N/A,,Clear,150,2013-07-03 23:53:00
7:53 PM,80.1,55.9,43,29.84,10.0,SE,10.4,-,N/A,,Clear,130,2013-07-04 00:53:00
8:53 PM,73.0,57.0,57,29.84,10.0,SE,9.2,-,N/A,,Clear,130,2013-07-04 01:53:00
9:53 PM,68.0,55.9,65,29.84,10.0,SE,9.2,-,N/A,,Clear,140,2013-07-04 02:53:00
10:53 PM,70.0,51.1,51,29.83,10.0,SSE,10.4,-,N/A,,Clear,150,2013-07-04 03:53:00
11:53 PM,69.1,51.1,53,29.84,10.0,SSE,9.2,-,N/A,,Clear,150,2013-07-04 04:53:00